Location: Melbourne
(37.8170°S, 144.9670°E)
Time: 06:31:26
(UTC+10:00)

Transit 2A - All Passes

Search period start: 31 May 2015 00:00
Search period end: 10 June 2015 00:00
Orbit: 593 x 967 km, 66.7° (Epoch: 29 May)

Date Brightness Start Highest point End Pass type
(mag) Time Alt. Az. Time Alt. Az. Time Alt. Az.
31 May - 10:09:43 10° NNW 10:14:00 65° ENE 10:18:21 10° SE daylight
31 May - 11:55:35 10° WSW 11:57:44 13° SW 11:59:44 10° SSW daylight
31 May - 18:56:48 10° SSW 19:01:39 39° SE 19:07:01 10° NE visible
31 May - 20:40:12 10° SW 20:44:48 28° WNW 20:49:39 10° NNW visible
01 Jun - 09:36:14 10° N 09:40:15 39° ENE 09:44:22 10° SE daylight
01 Jun - 11:20:28 10° W 11:23:38 19° SW 11:26:46 10° S daylight
01 Jun - 18:23:18 10° S 18:27:42 28° SE 18:32:33 10° ENE visible
01 Jun - 20:06:01 10° SW 20:11:03 42° WNW 20:16:30 10° N visible
02 Jun - 09:03:05 10° NNE 09:06:33 24° ENE 09:10:08 10° SE daylight
02 Jun - 10:45:52 10° WNW 10:49:38 28° SW 10:53:25 10° S daylight
02 Jun - 17:49:57 10° S 17:53:41 20° SE 17:57:49 10° E visible
02 Jun - 19:32:01 10° SW 19:37:16 62° WNW 19:43:03 10° NNE visible
03 Jun - 08:30:26 10° NE 08:32:52 15° ENE 08:35:30 10° ESE daylight
03 Jun - 10:11:34 10° NW 10:15:41 42° WSW 10:19:54 10° SSE daylight
03 Jun - 17:16:53 10° SSE 17:19:36 14° SE 17:22:39 10° E daylight
03 Jun - 18:58:08 10° SSW 19:03:29 90° WNW 19:09:22 10° NNE visible
03 Jun - 20:44:36 10° W 20:46:19 11° WNW 20:47:39 10° WNW visible
04 Jun - 09:37:30 10° NW 09:41:49 68° WSW 09:46:13 10° SSE daylight
04 Jun - 16:45:08 10° SE 16:45:26 10° SE 16:46:02 10° SE daylight
04 Jun - 18:24:23 10° SSW 18:29:39 63° ESE 18:35:27 10° NE visible
04 Jun - 20:08:58 10° WSW 20:12:37 17° WNW 20:16:10 10° NW visible
05 Jun - 09:03:42 10° NNW 09:08:00 75° ENE 09:12:25 10° SSE daylight
05 Jun - 10:50:09 10° WSW 10:51:52 12° SW 10:53:24 10° SSW daylight
05 Jun - 17:50:44 10° SSW 17:55:46 44° ESE 18:01:19 10° NE visible
05 Jun - 19:34:22 10° SW 19:38:53 26° WNW 19:43:33 10° NNW visible
06 Jun - 08:30:09 10° N 08:34:15 45° ENE 08:38:29 10° SE daylight
06 Jun - 10:14:48 10° W 10:17:45 17° SW 10:20:38 10° S daylight
06 Jun - 17:17:12 10° S 17:21:50 31° SE 17:26:56 10° ENE daylight
06 Jun - 19:00:07 10° SW 19:05:07 38° WNW 19:10:30 10° N visible
07 Jun - 07:56:52 10° N 08:00:32 28° ENE 08:04:20 10° SE daylight
07 Jun - 09:40:05 10° WNW 09:43:42 25° SW 09:47:21 10° S daylight
07 Jun - 16:43:47 10° S 16:47:50 22° SE 16:52:17 10° ENE daylight
07 Jun - 18:26:05 10° SW 18:31:21 55° WNW 18:37:08 10° N visible
08 Jun - 07:24:02 10° NNE 07:26:51 18° ENE 07:29:51 10° ESE daylight
08 Jun - 09:05:42 10° NW 09:09:44 37° SW 09:13:53 10° SSE daylight
08 Jun - 16:10:36 10° S 16:13:45 16° SE 16:17:17 10° E daylight
08 Jun - 17:52:10 10° SSW 17:57:34 81° WNW 18:03:30 10° NNE visible
09 Jun - 06:52:22 10° ENE 06:53:12 11° ENE 06:54:18 10° E visible
09 Jun - 08:31:35 10° NW 08:35:50 59° WSW 08:40:14 10° SSE daylight
09 Jun - 15:37:57 10° SSE 15:39:36 12° SE 15:41:34 10° ESE daylight
09 Jun - 17:18:23 10° SSW 17:23:44 71° ESE 17:29:39 10° NE daylight
09 Jun - 19:03:19 10° WSW 19:06:40 16° WNW 19:09:51 10° NW visible
